Pisa, Italy

4:28 AM CET on November 14, 2019 (GMT +0100)
San Giusto

Weather History for LIRP - September, 2019

Change the Weather History Date:

Wednesday, September 18, 2019

  Actual Average Record
Temperature  
Mean Temperature 71 °F -  
Max Temperature 81 °F 73 °F 84 °F (2003)
Min Temperature 61 °F 54 °F 46 °F (2001)
Cooling Degree Days 6    
Growing Degree Days 21 (Base 50)    
Moisture  
Dew Point 65 °F    
Average Humidity 82    
Maximum Humidity 100    
Minimum Humidity 51    
Precipitation  
Precipitation 0.00 in 0.14 in - ()
Sea Level Pressure  
Sea Level Pressure 29.98 in    
Wind  
Wind Speed 4 mph ()    
Max Wind Speed 12 mph    
Max Gust Speed -    
Visibility 6.3 miles    
Events      
Averages and records for this station are not official NWS values.
T = Trace of Precipitation, MM = Missing Value Source: Averaged Metar Reports

Daily Weather History Graph

Daily Weather History Graph

Search for Another Location

Airport or City:

Astronomy

Sep. 18, 2019 Rise Set
Actual Time 7:00 AM CEST 7:24 PM CEST
Civil Twilight 6:31 AM CEST 7:52 PM CEST
Nautical Twilight 5:57 AM CEST 8:26 PM CEST
Astronomical Twilight 5:23 AM CEST 9:01 PM CEST
Moon 9:42 PM CEST (9/18) 10:53 AM CEST (9/18)
Length of Visible Light 13h 20m
Length of Day
12h 23m
Waning Gibbous, 84% of the Moon is Illuminated
Sep 18
Waning Gibbous
Sep 22
Last Quarter
Sep 28
New
Oct 5
First Quarter
Oct 13
Full

Hourly Weather History & Observations

Time (CEST) Temp. Dew Point Humidity Pressure Visibility Wind Dir Wind Speed Gust Speed Precip Events Conditions
12:15 AM 62.6 °F 60.8 °F 94% 29.98 in 6.2 mi South 3.5 mph - N/A   Partly Cloudy
12:45 AM 62.6 °F 60.8 °F 94% 29.98 in - Variable 1.2 mph - N/A   Clear
1:15 AM 62.6 °F 60.8 °F 94% 29.98 in - ENE 2.3 mph - N/A   Clear
1:45 AM 62.6 °F 60.8 °F 94% 29.98 in - SE 3.5 mph - N/A   Clear
2:00 AM 62 °F 60 °F 93% 29.98 in 6 mi SE 3.5 mph - -  
2:15 AM 62.6 °F 60.8 °F 94% 29.98 in - ENE 3.5 mph - N/A   Clear
2:45 AM 64.4 °F 62.6 °F 94% 29.98 in 5.0 mi SSE 1.2 mph - N/A   Scattered Clouds
3:15 AM 62.6 °F 60.8 °F 94% 29.98 in 5.0 mi East 3.5 mph - N/A   Scattered Clouds
3:45 AM 62.6 °F 60.8 °F 94% 29.98 in 5.0 mi ESE 4.6 mph - N/A   Mostly Cloudy
4:15 AM 62.6 °F 62.6 °F 100% 29.98 in 5.0 mi ESE 4.6 mph - N/A   Scattered Clouds
4:45 AM 64.4 °F 62.6 °F 94% 29.98 in 5.0 mi ESE 4.6 mph - N/A   Scattered Clouds
5:00 AM 64 °F 63 °F 94% 29.98 in 5 mi ESE 4.6 mph - -   Mist
5:15 AM 64.4 °F 62.6 °F 94% 29.98 in 6.2 mi East 3.5 mph - N/A   Scattered Clouds
5:45 AM 64.4 °F 62.6 °F 94% 29.98 in 6.2 mi SE 3.5 mph - N/A   Scattered Clouds
6:15 AM 62.6 °F 60.8 °F 94% 29.98 in 6.2 mi ESE 3.5 mph - N/A   Scattered Clouds
6:45 AM 62.6 °F 60.8 °F 94% 29.98 in 6.2 mi East 4.6 mph - N/A   Scattered Clouds
7:15 AM 64.4 °F 60.8 °F 88% 29.98 in 6.2 mi SE 1.2 mph - N/A   Scattered Clouds
7:45 AM 64.4 °F 62.6 °F 94% 29.98 in 6.2 mi East 3.5 mph - N/A   Scattered Clouds
8:00 AM 64 °F 62 °F 93% 29.98 in 6 mi East 3.5 mph - -   Partly Cloudy
8:15 AM 66.2 °F 64.4 °F 94% 29.98 in 6.2 mi East 4.6 mph - N/A   Scattered Clouds
8:45 AM 66.2 °F 64.4 °F 94% 29.98 in 6.2 mi ESE 4.6 mph - N/A   Scattered Clouds
9:15 AM 69.8 °F 64.4 °F 83% 29.98 in 6.2 mi ESE 4.6 mph - N/A   Scattered Clouds
9:45 AM 69.8 °F 64.4 °F 83% 29.98 in 6.2 mi ESE 9.2 mph - N/A   Scattered Clouds
10:15 AM 75.2 °F 66.2 °F 73% 29.98 in 6.2 mi East 9.2 mph - N/A   Scattered Clouds
10:45 AM 75.2 °F 66.2 °F 73% 29.98 in 6.2 mi ESE 9.2 mph - N/A   Partly Cloudy
11:00 AM 76 °F 66 °F 65% 30.00 in 7 mi ESE 9.2 mph - -   Scattered Clouds
11:15 AM 77.0 °F 66.2 °F 69% 29.98 in 6.2 mi ESE 8.1 mph - N/A   Partly Cloudy
11:45 AM 77.0 °F 64.4 °F 65% 29.98 in 6.2 mi SE 6.9 mph - N/A   Scattered Clouds
12:15 PM 78.8 °F 66.2 °F 65% 29.98 in 6.2 mi SSE 4.6 mph - N/A   Scattered Clouds
12:45 PM 78.8 °F 64.4 °F 61% 29.98 in 6.2 mi SSW 3.5 mph - N/A   Scattered Clouds
1:15 PM 78.8 °F 64.4 °F 61% 29.98 in 6.2 mi West 10.4 mph - N/A   Scattered Clouds
1:45 PM 77.0 °F 68.0 °F 74% 29.98 in 6.2 mi West 8.1 mph - N/A   Scattered Clouds
2:00 PM 77 °F 69 °F 70% 29.99 in 9 mi West 8.1 mph - -   Partly Cloudy
2:15 PM 78.8 °F 68.0 °F 69% 29.98 in 6.2 mi West 8.1 mph - N/A   Scattered Clouds
2:45 PM 78.8 °F 68.0 °F 69% 29.98 in 6.2 mi WSW 11.5 mph - N/A   Partly Cloudy
3:45 PM 78.8 °F 66.2 °F 65% 29.98 in 6.2 mi West 8.1 mph - N/A   Partly Cloudy
4:15 PM 78.8 °F 64.4 °F 61% 29.98 in 6.2 mi West 8.1 mph - N/A   Partly Cloudy
4:45 PM 78.8 °F 64.4 °F 61% 29.95 in 6.2 mi West 8.1 mph - N/A   Partly Cloudy
5:00 PM 79 °F 64 °F 51% 29.97 in 11 mi West 8.1 mph - -   Scattered Clouds
5:15 PM 78.8 °F 64.4 °F 61% 29.95 in 6.2 mi West 8.1 mph - N/A   Partly Cloudy
5:45 PM 78.8 °F 66.2 °F 65% 29.95 in 6.2 mi West 5.8 mph - N/A   Partly Cloudy
6:15 PM 77.0 °F 64.4 °F 65% 29.95 in 6.2 mi West 5.8 mph - N/A   Partly Cloudy
6:45 PM 77.0 °F 66.2 °F 69% 29.95 in 6.2 mi West 5.8 mph - N/A   Partly Cloudy
7:15 PM 75.2 °F 68.0 °F 78% 29.95 in 6.2 mi West 5.8 mph - N/A   Partly Cloudy
7:45 PM 73.4 °F 69.8 °F 88% 29.95 in 6.2 mi WNW 5.8 mph - N/A   Partly Cloudy
8:00 PM 73 °F 69 °F 83% 29.98 in 9 mi WNW 5.8 mph - -   Scattered Clouds
8:15 PM 71.6 °F 69.8 °F 94% 29.98 in 6.2 mi Variable 2.3 mph - N/A   Partly Cloudy
8:45 PM 71.6 °F 68.0 °F 88% 29.98 in - NW 3.5 mph - N/A   Clear
9:15 PM 71.6 °F 68.0 °F 88% 29.98 in 6.2 mi Variable 2.3 mph - N/A   Partly Cloudy
9:45 PM 69.8 °F 68.0 °F 94% 29.98 in 6.2 mi SE 3.5 mph - N/A   Scattered Clouds
10:15 PM 68.0 °F 66.2 °F 94% 29.98 in 6.2 mi South 2.3 mph - N/A   Scattered Clouds
10:45 PM 68.0 °F 66.2 °F 94% 29.98 in 6.2 mi Variable 1.2 mph - N/A   Scattered Clouds
11:15 PM 69.8 °F 68.0 °F 94% 29.98 in 6.2 mi West 1.2 mph - N/A   Scattered Clouds
11:45 PM 68.0 °F 68.0 °F 100% 29.98 in 6.2 mi Variable 1.2 mph - N/A   Scattered Clouds